This is the latest recevied weather packets stored in our database for station/object N4ZIQ. If no packets are shown the sender has not sent any weather packets the latest 10 day(s).
| Time | Temp. | Humidity | Pressure | Rain* | Wind** | Luminosity | Snow |
|---|---|---|---|---|---|---|---|
| 1777565146 | 27.78° C | 69% | 1012.6 hPa | 0 mm | - | 868 W/m² | - |
| 1777564857 | 27.22° C | 68% | 1012.7 hPa | 0 mm | - | 608 W/m² | - |
| 1777564548 | 27.22° C | 68% | 1012.7 hPa | 0 mm | - | 821 W/m² | - |
| 1777564247 | 27.78° C | 68% | 1012.8 hPa | 0 mm | - | 798 W/m² | - |
| 1777563957 | 27.22° C | 70% | 1012.7 hPa | 0 mm | - | 823 W/m² | - |
| 1777563647 | 27.22° C | 72% | 1012.9 hPa | 0 mm | - | 826 W/m² | - |
| 1777563347 | 26.67° C | 72% | 1013 hPa | 0 mm | - | 842 W/m² | - |
| 1777563058 | 26.67° C | 73% | 1013 hPa | 0 mm | - | 816 W/m² | - |
| 1777562747 | 26.67° C | 73% | 1012.9 hPa | 0 mm | - | 840 W/m² | - |
| 1777562447 | 26.11° C | 75% | 1013 hPa | 0 mm | - | 803 W/m² | - |
| 1777562155 | 26.11° C | 75% | 1013 hPa | 0 mm | - | 819 W/m² | - |
| 1777561848 | 26.11° C | 75% | 1013 hPa | 0 mm | - | 779 W/m² | - |
| 1777561547 | 26.11° C | 76% | 1012.9 hPa | 0 mm | - | 758 W/m² | - |
| 1777561258 | 26.11° C | 77% | 1013 hPa | 0 mm | - | 657 W/m² | - |
| 1777560947 | 25.56° C | 79% | 1012.8 hPa | 0 mm | - | 775 W/m² | - |
| 1777560649 | 25.56° C | 81% | 1012.9 hPa | 0 mm | - | 784 W/m² | - |
| 1777560359 | 24.44° C | 83% | 1012.9 hPa | 0 mm | - | 701 W/m² | - |
| 1777560048 | 24.44° C | 82% | 1012.9 hPa | 0 mm | - | 211 W/m² | - |
| 1777559746 | 24.44° C | 83% | 1012.8 hPa | 0 mm | - | 243 W/m² | - |
| 1777559467 | 23.89° C | 84% | 1012.8 hPa | 0 mm | - | 371 W/m² | - |
| 1777559148 | 23.89° C | 85% | 1012.8 hPa | 0 mm | - | 202 W/m² | - |
| 1777558847 | 23.89° C | 85% | 1012.7 hPa | 0 mm | - | 144 W/m² | - |
| 1777558559 | 23.89° C | 85% | 1012.8 hPa | 0 mm | - | 169 W/m² | - |
| 1777558247 | 23.89° C | 85% | 1013 hPa | 0 mm | - | 163 W/m² | - |
| 1777557948 | 23.89° C | 85% | 1013 hPa | 0 mm | - | 195 W/m² | - |
* Rain latest hour (hover to see other rain measurements)
** Current wind speed in m/s (hover to see current wind gust speed)